Regional Weather Roundup
Issued by NWS

Home | Current Version | Previous Version | Text Only | Print | Product List | Glossary Off
Versions: 1 2 3 4 5 6 7 8 9 10 11 12 13 14 15 16 17 18 19 20 21 22 23 24 25 26 27 28 29 30 31 32 33 34 35 36 37 38 39 40 41 42 43 44 45 46 47 48 49 50

000
ASUS45 KBOI 180110
RWRID

IDAHO REGIONAL WEATHER ROUNDUP
NATIONAL WEATHER SERVICE BOISE ID
600 PM MST WED JAN 17 2018

NOTE: "FAIR" INDICATES FEW OR NO CLOUDS BELOW 12000 FEET
WITH NO SIGNIFICANT WEATHER AND/OR OBSTRUCTIONS TO VISIBILITY

IDZ012-014-180200-
SOUTHWEST IDAHO


CITY           SKY/WX    TMP DP  RH WIND       PRES   REMARKS
BOISE          CLOUDY    46  33  60 SE7       30.23S
CALDWELL       CLOUDY    44  36  73 E6        30.23F
MOUNTAIN HOME  MOCLDY    44  39  83 SE17G23   30.23F
$$

IDZ016-017-180200-
SOUTHCENTRAL IDAHO


CITY           SKY/WX    TMP DP  RH WIND       PRES   REMARKS
BURLEY         MOCLDY    39  31  72 N9        30.28F WCI  33
JEROME         MOCLDY    40  32  73 NE14      30.27F WCI  32
TWIN FALLS     MOCLDY    37  34  89 E7        30.27F WCI  32
$$

IDZ019>023-180200-
SOUTHEAST IDAHO


CITY           SKY/WX    TMP DP  RH WIND       PRES   REMARKS
IDAHO FALLS    MOCLDY    32  28  85 N5        30.35S WCI  27
POCATELLO      MOCLDY    35  30  82 CALM      30.33F
REXBURG        MOCLDY    30  26  85 E5        30.34S WCI  25
$$

IDZ006-010-011-018-031-032-180200-
CENTRAL IDAHO MOUNTAINS


CITY           SKY/WX    TMP DP  RH WIND       PRES   REMARKS
MCCALL         CLOUDY    32  29  88 CALM      30.20S
HAILEY         CLOUDY    34  27  75 CALM      30.31F
STANLEY          N/A     25  19  78 N3        30.25F
SALMON         MOCLDY    25  21  85 E3        30.29F
CHALLIS        MOCLDY    28  22  78 N3        30.28F
$$

IDZ002-004-006-007-026-180200-
NORTHERN IDAHO


CITY           SKY/WX    TMP DP  RH WIND       PRES   REMARKS
LEWISTON       CLOUDY    46  36  68 E15       30.05F
LOWELL           N/A     37  35  92 N7        30.17F WCI  32
COEUR D`ALENE  CLOUDY    35  33  92 NE8       30.04F WCI  29
MULLAN PASS    CLOUDY    29  28  96 SE5       30.05F WCI  24
$$



USA.gov is the U.S. government's official web portal to all federal, state and local government web resources and services.